Location: Unspecified
(0.0000°N, 0.0000°E)
Time: 20:08:48
(UTC+00:00)

COSMOS 1275 DEB - Pass Details

Date: 22 March 2026
Orbit: 902 x 973 km, 82.9° (Epoch: 8 April)

Event Time Altitude Azimuth Distance (km) Brightness Sun altitude
Rises 05:06:45 0° 150° (SSE) 3,523 ? -15.1°
Reaches altitude 10° 05:10:19 10° 128° (SE) 2,584 ? -14.2°
Maximum altitude 05:13:37 15° 93° (E) 2,222 ? -13.3°
Drops below altitude 10° 05:16:55 10° 58° (ENE) 2,594 ? -12.5°
Sets 05:20:28 0° 37° (NE) 3,544 ? -11.6°
